Radiation Dose at Monitoring Post of Fukushima Daini Nuclear Power Station
Date,Time,MP-1(microSv/h),MP-2(microSv/h),MP-3(microSv/h),MP-4(microSv/h),MP-5(microSv/h),MP-6(microSv/h),MP-7(microSv/h),Wind Direction,Wind Velocity(m/s),Rain
2017/04/15,00:00,0.381,0.237,0.392,0.365,0.332,0.192,0.163,south-southwest,4.6,No
2017/04/15,00:10,0.380,0.236,0.393,0.362,0.330,0.192,0.163,south-southwest,6.4,No
2017/04/15,00:20,0.379,0.236,0.392,0.362,0.332,0.191,0.162,south-southwest,4.5,No
2017/04/15,00:30,0.381,0.238,0.393,0.365,0.331,0.191,0.162,south-southwest,4.1,No
2017/04/15,00:40,0.380,0.238,0.393,0.363,0.331,0.193,0.163,south-southwest,4.5,No
2017/04/15,00:50,0.379,0.237,0.392,0.363,0.332,0.191,0.163,south-southwest,4.2,No
2017/04/15,01:00,0.380,0.236,0.392,0.365,0.331,0.192,0.163,south-southwest,3.2,No
2017/04/15,01:10,0.380,0.237,0.394,0.362,0.331,0.192,0.164,south-southwest,1.7,No
2017/04/15,01:20,0.379,0.237,0.391,0.365,0.332,0.193,0.164,south-southwest,3.9,No
2017/04/15,01:30,0.381,0.236,0.393,0.364,0.331,0.193,0.164,south-southwest,4.5,No
2017/04/15,01:40,0.380,0.238,0.394,0.363,0.332,0.191,0.163,southwest,3.3,No
2017/04/15,01:50,0.379,0.237,0.393,0.365,0.331,0.193,0.164,south-southwest,0.9,No
2017/04/15,02:00,0.381,0.237,0.393,0.364,0.330,0.193,0.164,-,CALM,No
2017/04/15,02:10,0.378,0.238,0.396,0.364,0.333,0.192,0.163,northwest,1.8,No
2017/04/15,02:20,0.380,0.237,0.392,0.364,0.331,0.192,0.164,northwest,1.9,No
2017/04/15,02:30,0.380,0.236,0.395,0.364,0.332,0.193,0.163,north,2.9,No
2017/04/15,02:40,0.381,0.237,0.394,0.363,0.332,0.192,0.163,north,3.1,No
2017/04/15,02:50,0.379,0.237,0.391,0.366,0.329,0.193,0.163,north,3.1,No
2017/04/15,03:00,0.379,0.236,0.394,0.364,0.332,0.192,0.163,north,2.9,No
2017/04/15,03:10,0.378,0.237,0.393,0.364,0.331,0.193,0.163,northwest,1.9,No
2017/04/15,03:20,0.380,0.237,0.393,0.366,0.331,0.192,0.163,west,1.0,No
2017/04/15,03:30,0.380,0.237,0.391,0.363,0.332,0.191,0.164,south-southwest,0.9,No
2017/04/15,03:40,0.379,0.237,0.394,0.365,0.330,0.192,0.163,southeast,2.3,No
2017/04/15,03:50,0.379,0.237,0.393,0.364,0.331,0.193,0.164,south,2.5,No
2017/04/15,04:00,0.380,0.238,0.393,0.364,0.332,0.192,0.164,southwest,1.7,No
2017/04/15,04:10,0.379,0.237,0.394,0.364,0.329,0.192,0.162,west-southwest,2.7,No
2017/04/15,04:20,0.379,0.237,0.394,0.364,0.331,0.192,0.164,southwest,3.2,No
2017/04/15,04:30,0.380,0.238,0.395,0.362,0.331,0.192,0.163,southwest,2.8,No
2017/04/15,04:40,0.378,0.238,0.397,0.366,0.330,0.192,0.163,southwest,2.2,No
2017/04/15,04:50,0.381,0.238,0.392,0.365,0.332,0.193,0.163,southwest,2.5,No
2017/04/15,05:00,0.379,0.238,0.393,0.364,0.332,0.192,0.164,southwest,4.5,No
2017/04/15,05:10,0.379,0.238,0.395,0.364,0.332,0.193,0.163,southwest,6.2,No
2017/04/15,05:20,0.381,0.236,0.394,0.364,0.332,0.192,0.163,southwest,6.2,No
2017/04/15,05:30,0.380,0.237,0.392,0.364,0.329,0.193,0.163,southwest,6.1,No
2017/04/15,05:40,0.380,0.236,0.396,0.365,0.333,0.191,0.163,south-southwest,5.8,No
2017/04/15,05:50,0.381,0.238,0.393,0.364,0.331,0.193,0.164,south-southwest,5.6,No
2017/04/15,06:00,0.379,0.238,0.393,0.363,0.331,0.192,0.161,southwest,5.7,No
2017/04/15,06:10,0.379,0.235,0.395,0.366,0.331,0.192,0.163,southwest,5.5,No
2017/04/15,06:20,0.380,0.238,0.393,0.363,0.329,0.192,0.162,southwest,5.6,No
2017/04/15,06:30,0.378,0.238,0.393,0.363,0.332,0.192,0.162,west-southwest,6.6,No
2017/04/15,06:40,0.380,0.238,0.395,0.364,0.329,0.192,0.164,west-southwest,5.2,No
2017/04/15,06:50,0.381,0.238,0.394,0.364,0.333,0.192,0.163,west-southwest,5.4,No
2017/04/15,07:00,0.376,0.237,0.392,0.365,0.330,0.191,0.162,southwest,7.0,No
2017/04/15,07:10,0.381,0.237,0.394,0.359,0.332,0.190,0.163,southwest,8.1,No
2017/04/15,07:20,0.378,0.236,0.391,0.365,0.330,0.192,0.163,southwest,7.5,No
2017/04/15,07:30,0.378,0.236,0.395,0.361,0.332,0.192,0.163,southwest,5.9,No
2017/04/15,07:40,0.378,0.236,0.390,0.366,0.330,0.193,0.161,southwest,5.9,No
2017/04/15,07:50,0.379,0.236,0.392,0.363,0.333,0.192,0.162,south-southwest,5.9,No
2017/04/15,08:00,0.379,0.235,0.391,0.358,0.328,0.192,0.163,southwest,4.8,No
2017/04/15,08:10,0.379,0.237,0.391,0.362,0.332,0.191,0.161,southwest,6.0,No
2017/04/15,08:20,0.375,0.236,0.394,0.363,0.329,0.192,0.161,southwest,6.7,No
2017/04/15,08:30,0.380,0.235,0.390,0.360,0.328,0.192,0.161,southwest,4.4,No
2017/04/15,08:40,0.377,0.236,0.392,0.361,0.331,0.190,0.161,south-southwest,4.3,No
2017/04/15,08:50,0.376,0.238,0.389,0.365,0.329,0.191,0.162,south,4.8,No
2017/04/15,09:00,0.380,0.235,0.394,0.363,0.328,0.191,0.163,south,6.1,No
2017/04/15,09:10,0.377,0.237,0.392,0.360,0.331,0.192,0.162,south-southwest,5.7,No
2017/04/15,09:20,0.377,0.237,0.392,0.365,0.328,0.192,0.162,south-southwest,6.3,No
2017/04/15,09:30,0.378,0.235,0.393,0.363,0.327,0.190,0.164,south-southwest,5.0,No
2017/04/15,09:40,0.377,0.237,0.391,0.360,0.330,0.192,0.162,south,8.0,No
2017/04/15,09:50,0.375,0.237,0.392,0.362,0.329,0.192,0.162,south,10.7,No
2017/04/15,10:00,0.379,0.236,0.389,0.365,0.327,0.191,0.163,south,9.8,No
2017/04/15,10:10,0.378,0.238,0.392,0.363,0.330,0.192,0.161,south,9.1,No
2017/04/15,10:20,0.375,0.237,0.394,0.360,0.330,0.192,0.163,south,9.0,No
2017/04/15,10:30,0.379,0.236,0.390,0.365,0.329,0.191,0.164,south,8.9,No
2017/04/15,10:40,0.379,0.238,0.395,0.363,0.331,0.193,0.162,south,8.6,No
2017/04/15,10:50,0.376,0.237,0.394,0.361,0.331,0.192,0.162,south-southwest,10.6,No
2017/04/15,11:00,0.377,0.235,0.389,0.367,0.328,0.190,0.163,south,7.6,No
2017/04/15,11:10,0.380,0.239,0.390,0.364,0.327,0.192,0.161,south,8.2,No
2017/04/15,11:20,0.378,0.238,0.394,0.361,0.332,0.192,0.161,south,7.5,No
2017/04/15,11:30,0.375,0.237,0.391,0.362,0.331,0.191,0.162,south-southwest,8.1,No
2017/04/15,11:40,0.379,0.236,0.388,0.365,0.328,0.192,0.162,south,8.7,No
2017/04/15,11:50,0.379,0.238,0.391,0.363,0.327,0.193,0.162,south,7.2,No
2017/04/15,12:00,0.375,0.238,0.394,0.363,0.330,0.192,0.164,south-southwest,4.8,No
2017/04/15,12:10,0.374,0.237,0.392,0.359,0.332,0.192,0.163,south,5.3,No
2017/04/15,12:20,0.374,0.237,0.391,0.361,0.332,0.191,0.161,south,9.0,No
2017/04/15,12:30,0.375,0.237,0.389,0.360,0.329,0.191,0.162,south,9.3,No
2017/04/15,12:40,0.378,0.237,0.390,0.360,0.329,0.191,0.162,south,9.0,No
2017/04/15,12:50,0.380,0.235,0.388,0.361,0.328,0.192,0.162,south,11.2,No
2017/04/15,13:00,0.379,0.238,0.386,0.366,0.327,0.192,0.162,south,11.1,No
2017/04/15,13:10,0.376,0.239,0.392,0.368,0.330,0.192,0.163,south-southwest,12.3,No
2017/04/15,13:20,0.382,0.237,0.394,0.363,0.331,0.193,0.163,west,1.8,No
2017/04/15,13:30,0.381,0.239,0.392,0.366,0.329,0.192,0.162,north,8.0,No
2017/04/15,13:40,0.377,0.238,0.394,0.365,0.332,0.193,0.163,north,8.3,Yes
2017/04/15,13:50,0.383,0.237,0.396,0.363,0.331,0.193,0.163,north,6.3,No
2017/04/15,14:00,0.379,0.239,0.391,0.367,0.328,0.190,0.161,north,6.6,No
2017/04/15,14:10,0.379,0.237,0.395,0.365,0.332,0.191,0.163,north-northeast,7.2,No
2017/04/15,14:20,0.380,0.238,0.395,0.363,0.330,0.192,0.163,north,7.5,No
2017/04/15,14:30,0.378,0.239,0.391,0.360,0.327,0.192,0.161,north,5.4,No
2017/04/15,14:40,0.382,0.237,0.392,0.367,0.331,0.192,0.163,north,4.5,Yes
2017/04/15,14:50,0.380,0.240,0.396,0.365,0.333,0.193,0.165,north,4.7,Yes
2017/04/15,15:00,0.380,0.236,0.392,0.363,0.329,0.192,0.163,northwest,2.4,No
2017/04/15,15:10,0.383,0.240,0.396,0.367,0.334,0.193,0.164,northwest,3.8,No
2017/04/15,15:20,0.380,0.237,0.394,0.364,0.332,0.193,0.163,west-northwest,6.6,No
2017/04/15,15:30,0.381,0.238,0.391,0.363,0.328,0.190,0.162,northwest,5.7,No
2017/04/15,15:40,0.380,0.239,0.397,0.366,0.326,0.192,0.164,northwest,5.8,No
2017/04/15,15:50,0.378,0.236,0.393,0.363,0.329,0.191,0.161,northwest,5.7,No
2017/04/15,16:00,0.382,0.239,0.396,0.365,0.332,0.191,0.163,west-northwest,6.7,No
2017/04/15,16:10,0.378,0.238,0.395,0.367,0.330,0.191,0.163,west-northwest,8.5,No
2017/04/15,16:20,0.380,0.237,0.393,0.362,0.328,0.192,0.163,west-northwest,6.9,No
2017/04/15,16:30,0.382,0.239,0.395,0.364,0.328,0.192,0.163,west-northwest,6.6,No
2017/04/15,16:40,0.378,0.237,0.395,0.365,0.328,0.192,0.162,west-northwest,5.9,No
2017/04/15,16:50,0.383,0.239,0.394,0.364,0.333,0.192,0.164,west-northwest,3.8,No
2017/04/15,17:00,0.382,0.238,0.395,0.365,0.330,0.192,0.163,west-northwest,3.8,No
2017/04/15,17:10,0.380,0.240,0.393,0.363,0.328,0.192,0.162,west-northwest,3.6,No
2017/04/15,17:20,0.382,0.239,0.398,0.365,0.333,0.192,0.164,west-northwest,2.2,No
2017/04/15,17:30,0.378,0.238,0.394,0.363,0.329,0.192,0.162,west,3.2,No
2017/04/15,17:40,0.382,0.238,0.397,0.365,0.333,0.191,0.163,west,1.0,No
2017/04/15,17:50,0.378,0.239,0.393,0.364,0.330,0.193,0.163,north-northwest,2.1,No
2017/04/15,18:00,0.383,0.238,0.395,0.364,0.329,0.192,0.163,-,CALM,No
2017/04/15,18:10,0.378,0.239,0.394,0.365,0.332,0.192,0.164,west-northwest,2.8,No
2017/04/15,18:20,0.381,0.238,0.396,0.365,0.330,0.191,0.162,west-southwest,3.7,No
2017/04/15,18:30,0.381,0.241,0.394,0.364,0.333,0.192,0.163,west,3.4,No
2017/04/15,18:40,0.383,0.239,0.395,0.365,0.330,0.192,0.162,west,1.8,No
2017/04/15,18:50,0.380,0.239,0.393,0.367,0.331,0.193,0.162,northwest,3.1,No
2017/04/15,19:00,0.380,0.239,0.396,0.365,0.332,0.192,0.163,west,5.1,No
2017/04/15,19:10,0.380,0.237,0.395,0.367,0.332,0.193,0.163,northwest,2.2,No
2017/04/15,19:20,0.380,0.239,0.396,0.363,0.331,0.192,0.163,west-southwest,3.6,No
2017/04/15,19:30,0.380,0.238,0.395,0.366,0.332,0.192,0.163,west,6.5,No
2017/04/15,19:40,0.381,0.240,0.396,0.365,0.331,0.193,0.163,west-southwest,6.7,No
2017/04/15,19:50,0.379,0.238,0.394,0.366,0.331,0.192,0.163,west-southwest,5.5,No
2017/04/15,20:00,0.381,0.239,0.397,0.364,0.332,0.192,0.163,west-southwest,7.2,No
2017/04/15,20:10,0.381,0.238,0.395,0.366,0.329,0.193,0.162,west,8.1,No
2017/04/15,20:20,0.381,0.240,0.397,0.366,0.332,0.192,0.162,west,9.2,No
2017/04/15,20:30,0.378,0.240,0.395,0.364,0.329,0.193,0.163,west,9.1,No
2017/04/15,20:40,0.382,0.237,0.395,0.367,0.331,0.192,0.163,west,8.6,No
2017/04/15,20:50,0.380,0.238,0.395,0.364,0.329,0.192,0.162,west,8.4,No
2017/04/15,21:00,0.381,0.239,0.395,0.366,0.332,0.191,0.163,west,6.7,No
2017/04/15,21:10,0.379,0.239,0.397,0.364,0.329,0.192,0.163,west,6.4,No
2017/04/15,21:20,0.384,0.238,0.395,0.366,0.331,0.191,0.163,west,5.9,No
2017/04/15,21:30,0.379,0.239,0.396,0.364,0.329,0.193,0.162,west,6.1,No
2017/04/15,21:40,0.381,0.240,0.396,0.365,0.331,0.192,0.163,west,7.3,No
2017/04/15,21:50,0.379,0.239,0.396,0.363,0.332,0.193,0.164,west-southwest,6.9,No
2017/04/15,22:00,0.381,0.239,0.394,0.365,0.330,0.192,0.163,west,7.7,No
2017/04/15,22:10,0.379,0.239,0.396,0.364,0.331,0.191,0.163,west,8.4,No
2017/04/15,22:20,0.383,0.239,0.396,0.366,0.329,0.192,0.163,west,7.3,No
2017/04/15,22:30,0.380,0.240,0.396,0.366,0.333,0.192,0.164,west,7.6,No
2017/04/15,22:40,0.382,0.238,0.395,0.365,0.330,0.193,0.163,west,6.2,No
2017/04/15,22:50,0.380,0.240,0.395,0.366,0.331,0.192,0.163,west-southwest,6.5,No
2017/04/15,23:00,0.381,0.238,0.397,0.364,0.330,0.192,0.164,west,6.0,No
2017/04/15,23:10,0.382,0.238,0.394,0.366,0.331,0.191,0.164,west,7.1,No
2017/04/15,23:20,0.381,0.240,0.397,0.365,0.330,0.192,0.163,west-southwest,6.2,No
2017/04/15,23:30,0.382,0.240,0.395,0.364,0.329,0.192,0.163,west,6.9,No
2017/04/15,23:40,0.379,0.239,0.398,0.367,0.332,0.192,0.164,west,6.7,No
2017/04/15,23:50,0.381,0.240,0.395,0.363,0.330,0.193,0.163,west,4.4,No
